Tracking 32139 objects as of 18-Nov-2025
HD Live streaming from Space Station
objects crossing your sky now

STARLINK-2236

Track STARLINK-2236 now!
10-day predictions
STARLINK-2236 is classified as:


NORAD ID: 48582
Int'l Code: 2021-041AF
Perigee: 553.2 km
Apogee: 555.4 km
Inclination: 53.1 °
Period: 95.6 minutes
Semi major axis: 6925 km
RCS: Unknown
Launch date: May 15, 2021
Source: United States (US)
Launch site: AIR FORCE EASTERN TEST RANGE (AFETR)
Your satellite tracking list
Your tracking list is empty




NASA's NSSDC Master Catalog

Two Line Element Set (TLE):
1 48582U 21041AF  25322.09564531  .00012925  00000-0  88477-3 0  9998
2 48582  53.0538 237.7431 0001570  82.1888 277.9279 15.06410180248876
Source of the keplerian elements: AFSPC